When you browse on this site, cookies collect data to enhance your experience and personalize the content and advertising you see.
Visit our Privacy Policy to learn more. By continuing to use the site, you agree to this use of cookies and data.
  • In Österreich
  • Länderverzeichnis
  • Für 7 Tage
  • Wassertemperatur
  • Satellitenkarten
  • Wetterkarte
  • News
  • Widgets
  • user-avatar
    Anmelden

    Stündliche Wetter Sterling Heights

    Heute, 19 Februar, Dienstag

    Zeit Temperatur Niederschläge Wind Luftdruck Luftfeuchtigkeit
    00:00 -9°C° 0 mm 0 m/S 758 mmHg 88%
    01:00 -9°C° 0 mm 0 m/S 758 mmHg 88%
    02:00 -9°C° 0 mm 0 m/S 758 mmHg 88%
    03:00 -9°C° 0 mm 0 m/S 759 mmHg 89%
    04:00 -9°C° 0 mm 0 m/S 759 mmHg 89%
    05:00 -9°C° 0 mm 0 m/S 759 mmHg 90%
    06:00 -9°C° 0 mm 0 m/S 760 mmHg 91%
    07:00 -8°C° 0 mm 1 m/S 760 mmHg 89%
    08:00 -7°C° 0 mm 1 m/S 761 mmHg 87%
    09:00 -6°C° 0 mm 1 m/S 761 mmHg 85%
    10:00 -4°C° 0 mm 1 m/S 761 mmHg 83%
    11:00 -5°C° 0 mm 2 m/S 761 mmHg 80%
    12:00 -4°C° 0 mm 2 m/S 761 mmHg 78%
    13:00 -4°C° 0 mm 2 m/S 760 mmHg 76%
    14:00 -2°C° 0 mm 1 m/S 760 mmHg 74%
    15:00 -2°C° 0 mm 1 m/S 759 mmHg 72%
    16:00 -2°C° 0 mm 1 m/S 759 mmHg 76%
    17:00 -5°C° 0 mm 2 m/S 759 mmHg 80%
    18:00 -5°C° 0 mm 2 m/S 758 mmHg 84%
    19:00 -6°C° 0 mm 2 m/S 758 mmHg 86%
    20:00 -4°C° 0 mm 1 m/S 758 mmHg 88%
    21:00 -4°C° 0 mm 1 m/S 758 mmHg 89%
    22:00 -4°C° 0 mm 1 m/S 757 mmHg 90%
    23:00 -4°C° 0 mm 1 m/S 757 mmHg 90%

    Morgen, 20 Februar, Mittwoch

    Zeit Temperatur Niederschläge Wind Luftdruck Luftfeuchtigkeit
    00:00 -7°C° 0 mm 2 m/S 757 mmHg 91%
    01:00 -7°C° 0 mm 2 m/S 756 mmHg 90%
    02:00 -7°C° 0 mm 2 m/S 755 mmHg 90%
    03:00 -8°C° 0 mm 3 m/S 754 mmHg 89%
    04:00 -7°C° 0 mm 3 m/S 753 mmHg 88%
    05:00 -7°C° 0 mm 3 m/S 753 mmHg 87%
    06:00 -8°C° 0 mm 4 m/S 752 mmHg 86%
    07:00 -7°C° 0.1 mm 4 m/S 751 mmHg 85%
    08:00 -7°C° 0.1 mm 5 m/S 750 mmHg 84%
    09:00 -6°C° 0.1 mm 5 m/S 750 mmHg 82%
    10:00 -6°C° 0.1 mm 5 m/S 748 mmHg 85%
    11:00 -5°C° 0.1 mm 5 m/S 747 mmHg 87%
    12:00 -5°C° 0.1 mm 5 m/S 746 mmHg 90%
    13:00 -4°C° 0.1 mm 5 m/S 745 mmHg 91%
    14:00 -2°C° 0.1 mm 5 m/S 744 mmHg 92%
    15:00 -2°C° 0.1 mm 5 m/S 742 mmHg 93%
    16:00 -1°C° 0.4 mm 4 m/S 741 mmHg 94%
    17:00 -1°C° 0.4 mm 4 m/S 740 mmHg 96%
    18:00 -1°C° 0.4 mm 4 m/S 739 mmHg 97%
    19:00 -1°C° 0.6 mm 4 m/S 738 mmHg 97%
    20:00 -1°C° 0.6 mm 4 m/S 738 mmHg 98%
    21:00 0°C° 0.6 mm 4 m/S 737 mmHg 98%
    22:00 0°C° 0.1 mm 4 m/S 737 mmHg 98%
    23:00 +1°C° 0.1 mm 5 m/S 737 mmHg 97%

    übermorgen, 21 Februar, Donnerstag

    Zeit Temperatur Niederschläge Wind Luftdruck Luftfeuchtigkeit
    00:00 +1°C° 0.1 mm 5 m/S 737 mmHg 97%
    01:00 +1°C° 0 mm 6 m/S 737 mmHg 95%
    02:00 -1°C° 0 mm 6 m/S 738 mmHg 92%
    03:00 -1°C° 0 mm 6 m/S 739 mmHg 90%
    04:00 -1°C° 0 mm 6 m/S 740 mmHg 88%
    05:00 -2°C° 0 mm 6 m/S 741 mmHg 86%
    06:00 -1°C° 0 mm 5 m/S 741 mmHg 85%
    07:00 -1°C° 0 mm 5 m/S 742 mmHg 84%
    08:00 -2°C° 0 mm 6 m/S 743 mmHg 83%
    09:00 -1°C° 0 mm 6 m/S 744 mmHg 83%
    10:00 0°C° 0 mm 5 m/S 744 mmHg 81%
    11:00 0°C° 0 mm 5 m/S 745 mmHg 80%
    12:00 0°C° 0 mm 5 m/S 746 mmHg 79%
    13:00 0°C° 0 mm 5 m/S 746 mmHg 78%
    14:00 0°C° 0 mm 5 m/S 746 mmHg 77%
    15:00 -1°C° 0 mm 4 m/S 747 mmHg 77%
    16:00 -1°C° 0 mm 4 m/S 748 mmHg 77%
    17:00 -1°C° 0 mm 4 m/S 748 mmHg 78%
    18:00 -1°C° 0 mm 3 m/S 749 mmHg 78%
    19:00 -1°C° 0 mm 3 m/S 749 mmHg 79%
    20:00 -1°C° 0 mm 3 m/S 750 mmHg 79%
    21:00 -1°C° 0 mm 2 m/S 751 mmHg 80%
    22:00 -2°C° 0 mm 2 m/S 751 mmHg 81%
    23:00 -2°C° 0 mm 2 m/S 751 mmHg 82%

    22 Februar, Freitag

    Zeit Temperatur Niederschläge Wind Luftdruck Luftfeuchtigkeit
    00:00 -2°C° 0 mm 2 m/S 751 mmHg 83%
    01:00 -3°C° 0 mm 2 m/S 752 mmHg 83%
    02:00 -3°C° 0 mm 2 m/S 752 mmHg 84%
    03:00 -3°C° 0 mm 2 m/S 752 mmHg 84%
    04:00 -3°C° 0 mm 2 m/S 753 mmHg 85%
    05:00 -3°C° 0 mm 2 m/S 753 mmHg 85%
    06:00 -1°C° 0 mm 1 m/S 754 mmHg 85%
    07:00 -1°C° 0 mm 1 m/S 754 mmHg 82%
    08:00 0°C° 0 mm 1 m/S 755 mmHg 78%
    09:00 +1°C° 0 mm 1 m/S 755 mmHg 74%
    10:00 +1°C° 0 mm 1 m/S 755 mmHg 70%
    11:00 +2°C° 0 mm 1 m/S 755 mmHg 67%
    12:00 +3°C° 0 mm 1 m/S 755 mmHg 63%
    13:00 +3°C° 0 mm 1 m/S 755 mmHg 61%
    14:00 +2°C° 0 mm 0 m/S 755 mmHg 60%
    15:00 +3°C° 0 mm 0 m/S 754 mmHg 59%
    16:00 +3°C° 0 mm 1 m/S 754 mmHg 64%
    17:00 +2°C° 0 mm 1 m/S 754 mmHg 69%
    18:00 -1°C° 0 mm 2 m/S 754 mmHg 74%
    19:00 -1°C° 0 mm 2 m/S 754 mmHg 75%
    20:00 -2°C° 0 mm 2 m/S 754 mmHg 77%
    21:00 -2°C° 0 mm 2 m/S 754 mmHg 78%
    22:00 -2°C° 0 mm 2 m/S 753 mmHg 77%
    23:00 -2°C° 0 mm 2 m/S 753 mmHg 76%

    23 Februar, Samstag

    Zeit Temperatur Niederschläge Wind Luftdruck Luftfeuchtigkeit
    00:00 -2°C° 0 mm 2 m/S 752 mmHg 75%
    01:00 -2°C° 0 mm 2 m/S 751 mmHg 78%
    02:00 -2°C° 0 mm 2 m/S 751 mmHg 80%
    03:00 -2°C° 0 mm 2 m/S 750 mmHg 83%
    04:00 -2°C° 0 mm 2 m/S 750 mmHg 84%
    05:00 -2°C° 0 mm 3 m/S 749 mmHg 85%
    06:00 -2°C° 0 mm 3 m/S 749 mmHg 86%
    07:00 -1°C° 0 mm 3 m/S 749 mmHg 82%
    08:00 0°C° 0 mm 3 m/S 748 mmHg 78%
    09:00 0°C° 0 mm 3 m/S 748 mmHg 74%
    10:00 +2°C° 0.1 mm 2 m/S 747 mmHg 76%
    11:00 +2°C° 0.1 mm 2 m/S 746 mmHg 77%
    12:00 +3°C° 0.1 mm 1 m/S 746 mmHg 78%
    13:00 +3°C° 0.1 mm 1 m/S 745 mmHg 81%
    14:00 +3°C° 0.1 mm 1 m/S 744 mmHg 83%
    15:00 +3°C° 0.1 mm 1 m/S 744 mmHg 85%
    16:00 +3°C° 0.3 mm 1 m/S 743 mmHg 89%
    17:00 +2°C° 0.3 mm 1 m/S 743 mmHg 92%
    18:00 +1°C° 0.3 mm 2 m/S 743 mmHg 95%
    19:00 +1°C° 0.8 mm 2 m/S 742 mmHg 96%
    20:00 +1°C° 0.8 mm 2 m/S 742 mmHg 97%
    21:00 +1°C° 0.8 mm 2 m/S 741 mmHg 97%
    22:00 0°C° 0.2 mm 3 m/S 740 mmHg 97%
    23:00 0°C° 0.2 mm 4 m/S 739 mmHg 97%

    24 Februar, Sonntag

    Zeit Temperatur Niederschläge Wind Luftdruck Luftfeuchtigkeit
    00:00 0°C° 0.2 mm 4 m/S 738 mmHg 97%
    01:00 0°C° 0.2 mm 4 m/S 737 mmHg 97%
    02:00 +1°C° 0.2 mm 3 m/S 736 mmHg 98%
    03:00 +1°C° 0.2 mm 3 m/S 736 mmHg 98%
    04:00 +1°C° 0.2 mm 3 m/S 735 mmHg 98%
    05:00 +2°C° 0.2 mm 3 m/S 734 mmHg 98%
    06:00 +2°C° 0.2 mm 3 m/S 732 mmHg 98%
    07:00 +3°C° 0.5 mm 3 m/S 731 mmHg 98%
    08:00 +3°C° 0.5 mm 4 m/S 730 mmHg 98%
    09:00 +4°C° 0.5 mm 4 m/S 729 mmHg 98%
    10:00 +6°C° 0 mm 5 m/S 728 mmHg 87%
    11:00 +8°C° 0 mm 7 m/S 728 mmHg 76%
    12:00 +10°C° 0 mm 8 m/S 727 mmHg 64%
    13:00 +9°C° 0.1 mm 8 m/S 727 mmHg 68%
    14:00 +6°C° 0.1 mm 8 m/S 727 mmHg 72%
    15:00 +4°C° 0.1 mm 8 m/S 727 mmHg 76%
    16:00 +2°C° 0.2 mm 9 m/S 728 mmHg 74%
    17:00 +2°C° 0.2 mm 10 m/S 728 mmHg 73%
    18:00 +2°C° 0.2 mm 11 m/S 729 mmHg 71%
    19:00 +1°C° 0 mm 11 m/S 730 mmHg 70%
    20:00 -1°C° 0 mm 12 m/S 731 mmHg 68%
    21:00 -2°C° 0 mm 12 m/S 732 mmHg 67%
    22:00 -3°C° 0 mm 11 m/S 734 mmHg 67%
    23:00 -3°C° 0 mm 10 m/S 736 mmHg 67%
    Mehr zeigen